TimeCDT,TemperatureF,Dew PointF,Humidity,Sea Level PressureIn,VisibilityMPH,Wind Direction,Wind SpeedMPH,Gust SpeedMPH,PrecipitationIn,Events,Conditions,WindDirDegrees,DateUTC
12:15 AM,84.2,72.0,67,30.01,10.0,SE,4.6,-,N/A,,Clear,140,2013-07-08 05:15:00
12:35 AM,84.2,72.5,68,30.01,10.0,SE,4.6,-,N/A,,Clear,140,2013-07-08 05:35:00
12:55 AM,83.5,72.9,70,30.01,10.0,SSE,3.5,-,N/A,,Clear,150,2013-07-08 05:55:00
1:15 AM,82.8,73.4,73,30.01,10.0,SSE,5.8,-,N/A,,Clear,150,2013-07-08 06:15:00
1:35 AM,82.4,73.4,74,30.02,10.0,SSE,4.6,-,N/A,,Clear,160,2013-07-08 06:35:00
1:55 AM,81.9,73.8,76,30.02,10.0,SSE,4.6,-,N/A,,Clear,160,2013-07-08 06:55:00
2:15 AM,81.3,73.9,78,30.02,10.0,SSE,5.8,-,N/A,,Clear,150,2013-07-08 07:15:00
2:35 AM,80.4,73.8,80,30.02,10.0,SE,3.5,-,N/A,,Clear,140,2013-07-08 07:35:00
2:55 AM,80.1,73.9,81,30.02,10.0,SE,3.5,-,N/A,,Clear,140,2013-07-08 07:55:00
3:15 AM,79.9,74.3,83,30.02,10.0,SE,4.6,-,N/A,,Clear,140,2013-07-08 08:15:00
3:35 AM,79.3,74.3,84,30.03,10.0,ESE,3.5,-,N/A,,Clear,110,2013-07-08 08:35:00
3:55 AM,78.4,74.3,87,30.03,10.0,ESE,3.5,-,N/A,,Clear,120,2013-07-08 08:55:00
4:15 AM,77.9,73.9,88,30.04,10.0,Calm,Calm,-,N/A,,Clear,0,2013-07-08 09:15:00
4:35 AM,77.0,73.8,90,30.04,10.0,ESE,4.6,-,N/A,,Clear,120,2013-07-08 09:35:00
4:55 AM,76.6,73.8,91,30.05,10.0,SE,4.6,-,N/A,,Clear,130,2013-07-08 09:55:00
5:15 AM,76.6,73.8,91,30.06,10.0,ESE,4.6,-,N/A,,Clear,110,2013-07-08 10:15:00
5:55 AM,76.1,73.8,92,30.06,10.0,SE,4.6,-,N/A,,Clear,130,2013-07-08 10:55:00
6:15 AM,76.3,74.1,93,30.07,10.0,SE,4.6,-,N/A,,Clear,130,2013-07-08 11:15:00
6:35 AM,76.6,74.3,92,30.07,10.0,SE,4.6,-,N/A,,Clear,130,2013-07-08 11:35:00
6:55 AM,77.4,74.5,91,30.07,10.0,SE,5.8,-,N/A,,Clear,130,2013-07-08 11:55:00
7:15 AM,78.1,74.8,90,30.08,10.0,SE,5.8,-,N/A,,Clear,140,2013-07-08 12:15:00
7:35 AM,79.0,75.2,88,30.08,10.0,SSE,6.9,-,N/A,,Clear,160,2013-07-08 12:35:00
7:55 AM,79.9,75.2,86,30.09,10.0,South,8.1,-,N/A,,Clear,170,2013-07-08 12:55:00
8:15 AM,81.1,75.6,83,30.10,10.0,South,8.1,-,N/A,,Clear,180,2013-07-08 13:15:00
8:35 AM,82.0,75.7,81,30.10,10.0,South,5.8,-,N/A,,Scattered Clouds,170,2013-07-08 13:35:00
8:55 AM,83.7,76.1,78,30.10,10.0,SSW,6.9,-,N/A,,Scattered Clouds,200,2013-07-08 13:55:00
9:15 AM,84.4,76.1,76,30.11,10.0,South,6.9,-,N/A,,Scattered Clouds,190,2013-07-08 14:15:00
9:35 AM,85.3,76.3,74,30.11,10.0,South,8.1,-,N/A,,Scattered Clouds,190,2013-07-08 14:35:00
9:55 AM,86.4,76.5,72,30.11,10.0,SSW,6.9,-,N/A,,Scattered Clouds,200,2013-07-08 14:55:00
10:15 AM,86.0,76.3,73,30.11,10.0,SSW,6.9,-,N/A,,Scattered Clouds,200,2013-07-08 15:15:00
10:35 AM,88.0,76.5,69,30.10,10.0,SW,8.1,-,N/A,,Scattered Clouds,230,2013-07-08 15:35:00
10:55 AM,88.9,76.6,67,30.11,10.0,South,5.8,-,N/A,,Mostly Cloudy,190,2013-07-08 15:55:00
11:15 AM,90.0,76.6,65,30.11,10.0,SSW,5.8,-,N/A,,Scattered Clouds,200,2013-07-08 16:15:00
11:35 AM,89.1,75.9,65,30.11,10.0,SSW,4.6,-,N/A,,Mostly Cloudy,210,2013-07-08 16:35:00
11:55 AM,91.4,76.1,61,30.10,10.0,South,6.9,-,N/A,,Scattered Clouds,180,2013-07-08 16:55:00
12:15 PM,91.8,75.0,58,30.10,10.0,South,4.6,-,N/A,,Scattered Clouds,190,2013-07-08 17:15:00
12:35 PM,92.8,75.2,56,30.10,10.0,South,6.9,-,N/A,,Mostly Cloudy,180,2013-07-08 17:35:00
12:55 PM,93.9,75.2,54,30.09,10.0,South,9.2,-,N/A,,Scattered Clouds,170,2013-07-08 17:55:00
1:15 PM,93.9,74.5,53,30.09,10.0,South,4.6,-,N/A,,Scattered Clouds,170,2013-07-08 18:15:00
1:35 PM,95.2,74.7,51,30.08,10.0,SSE,4.6,-,N/A,,Scattered Clouds,150,2013-07-08 18:35:00
1:55 PM,95.2,74.3,51,30.08,10.0,SSE,8.1,-,N/A,,Mostly Cloudy,160,2013-07-08 18:55:00
2:15 PM,95.4,73.6,49,30.07,10.0,SSW,6.9,-,N/A,,Scattered Clouds,210,2013-07-08 19:15:00
2:35 PM,97.5,73.2,45,30.06,10.0,SW,8.1,16.1,N/A,,Scattered Clouds,220,2013-07-08 19:35:00
2:55 PM,96.1,73.0,47,30.06,10.0,South,9.2,-,N/A,,Scattered Clouds,170,2013-07-08 19:55:00
3:15 PM,96.6,72.9,46,30.05,10.0,SSE,6.9,-,N/A,,Scattered Clouds,160,2013-07-08 20:15:00
3:35 PM,97.0,73.8,47,30.05,10.0,SE,6.9,-,N/A,,Clear,140,2013-07-08 20:35:00
3:55 PM,97.9,73.9,46,30.04,10.0,South,4.6,-,N/A,,Clear,180,2013-07-08 20:55:00
4:15 PM,97.0,73.8,47,30.04,10.0,SSW,6.9,-,N/A,,Scattered Clouds,210,2013-07-08 21:15:00
4:35 PM,96.8,74.3,48,30.03,10.0,SSE,5.8,-,N/A,,Scattered Clouds,150,2013-07-08 21:35:00
4:55 PM,94.6,73.0,49,30.03,10.0,SSW,5.8,-,N/A,,Scattered Clouds,200,2013-07-08 21:55:00
5:15 PM,95.7,73.0,48,30.03,10.0,SE,8.1,-,N/A,,Mostly Cloudy,140,2013-07-08 22:15:00
5:35 PM,94.1,74.1,52,30.03,10.0,SSW,3.5,-,N/A,,Mostly Cloudy,200,2013-07-08 22:35:00
5:55 PM,96.8,73.4,47,30.02,10.0,SSE,6.9,-,N/A,,Scattered Clouds,150,2013-07-08 22:55:00
6:15 PM,96.4,72.3,46,30.01,10.0,South,4.6,-,N/A,,Clear,190,2013-07-08 23:15:00
6:35 PM,96.8,72.9,46,30.01,10.0,South,3.5,-,N/A,,Scattered Clouds,170,2013-07-08 23:35:00
6:55 PM,96.6,72.0,45,30.01,10.0,SE,5.8,-,N/A,,Scattered Clouds,140,2013-07-08 23:55:00
7:15 PM,95.4,72.5,47,30.01,10.0,SE,5.8,-,N/A,,Scattered Clouds,130,2013-07-09 00:15:00
7:35 PM,94.5,72.3,49,30.01,10.0,SE,3.5,-,N/A,,Clear,140,2013-07-09 00:35:00
7:55 PM,93.6,72.9,51,30.01,10.0,ESE,4.6,-,N/A,,Clear,120,2013-07-09 00:55:00
8:15 PM,92.1,73.2,54,30.01,10.0,SE,4.6,-,N/A,,Clear,130,2013-07-09 01:15:00
8:35 PM,90.9,73.0,56,30.01,10.0,SE,4.6,-,N/A,,Clear,130,2013-07-09 01:35:00
8:55 PM,90.7,73.4,57,30.01,10.0,SSE,4.6,-,N/A,,Clear,150,2013-07-09 01:55:00
9:15 PM,90.0,73.4,58,30.02,10.0,SSE,5.8,-,N/A,,Clear,160,2013-07-09 02:15:00
9:35 PM,89.6,73.4,59,30.03,10.0,SSE,5.8,-,N/A,,Clear,160,2013-07-09 02:35:00
9:55 PM,88.5,73.8,61,30.04,10.0,SSE,4.6,-,N/A,,Clear,160,2013-07-09 02:55:00
10:15 PM,88.0,73.9,63,30.05,10.0,SSE,4.6,-,N/A,,Clear,160,2013-07-09 03:15:00
10:35 PM,87.8,74.3,64,30.06,10.0,SSE,5.8,-,N/A,,Clear,160,2013-07-09 03:35:00
10:55 PM,87.3,74.3,65,30.06,10.0,SSE,4.6,-,N/A,,Clear,160,2013-07-09 03:55:00
11:15 PM,86.9,74.5,66,30.06,10.0,South,4.6,-,N/A,,Clear,170,2013-07-09 04:15:00
11:35 PM,86.0,74.5,68,30.06,10.0,South,3.5,-,N/A,,Clear,170,2013-07-09 04:35:00
11:55 PM,85.1,74.5,70,30.06,10.0,South,3.5,-,N/A,,Clear,170,2013-07-09 04:55:00